Regional Weather Roundup
Issued by NWS Huntsville, AL

Home | Current Version | Previous Version | Text Only | Print | Product List | Glossary On
Versions: 1 2 3 4 5 6 7 8 9 10 11 12 13 14 15 16 17 18 19 20 21 22 23 24 25 26 27 28 29 30 31 32 33 34 35 36 37 38 39 40 41 42 43 44 45 46 47 48 49 50
000
ASUS44 KHUN 251910
RWRHUN

WEATHER ROUNDUP FOR THE TENNESSEE VALLEY
NATIONAL WEATHER SERVICE HUNTSVILLE AL
100 PM CST THU DEC 25 2014

ALZ001>004-252000-
NORTHWEST ALABAMA

CITY           SKY/WX    TMP DP  RH WIND       PRES   REMARKS
COURTLAND HCN    N/A     48 N/A N/A CALM        N/A
RUSSELLVILLE     N/A     48 N/A N/A MISG        N/A
SHOALS AIRPORT SUNNY     51  35  54 VRB3      30.19F
SHOALS TVA RES   N/A     48 N/A N/A MISG        N/A
$$

ALZ005>007-016-252000-
NORTH CENTRAL ALABAMA

CITY           SKY/WX    TMP DP  RH WIND       PRES   REMARKS
CULLMAN AG STN   N/A     46 N/A N/A CALM        N/A
DECATUR AP     SUNNY     47  36  65 CALM      30.19F
HUNTSVILLE AP  MOSUNNY   49  37  63 E6        30.19F
HUN NWS/UAH      N/A     47  34  60 S5          N/A
MERIDIANVILLE  MOSUNNY   46  32  57 S6        30.19F
REDSTONE ARSN  MOSUNNY   45  36  70 VRB2      30.19F
VINEMONT AP    FAIR      49  33  55 S6        30.19F
$$

ALZ008>010-252000-
NORTHEAST ALABAMA

CITY           SKY/WX    TMP DP  RH WIND       PRES   REMARKS
ALBERTVILLE    PTSUNNY   45  39  81 CALM      30.17F
FORT PAYNE     MOSUNNY   45  32  61 CALM      30.18F
SCOTTSBORO AP  SUNNY     46  34  61 S6        30.20F
VALLEY HEAD      N/A     46 N/A N/A MISG        N/A
$$

TNZ076-096-097-252000-
SOUTHEASTERN MIDDLE TENNESSEE

CITY           SKY/WX    TMP DP  RH WIND       PRES   REMARKS
TULLAHOMA      SUNNY     45  34  65 SE7       30.17F
WINCHESTER     SUNNY     46  34  61 W3        30.17F
$$

...SURROUNDING SITES...

CITY           SKY/WX    TMP DP  RH WIND       PRES   REMARKS
ATLANTA        SUNNY     50  35  56 W8        30.18F
ANNISTON       SUNNY     51  34  52 CALM      30.19F
BIRMINGHAM     MOSUNNY   49  34  56 SW5       30.22F
CHATTANOOGA    MOSUNNY   49  34  56 VRB3      30.19F
CORINTH        FAIR      52  36  54 S8        30.16S
DALTON         SUNNY     48  36  61 CALM      30.18F
GADSDEN        SUNNY     50  34  53 CALM      30.20F
GOLDEN TRNGL   SUNNY     52  36  54 S7        30.22R
HALEYVILLE     FAIR      47  34  60 CALM      30.20F
JACKSON TN     LGT RAIN  51  33  50 SW8       30.16F
LEWISBURG      FAIR      46  34  63 SE6       30.16F
MEMPHIS        MOSUNNY   53  34  48 SW9       30.15F
MURFREESBORO   FAIR      46  34  63 VRB7      30.18F
NASHVILLE      MOSUNNY   46  34  62 S8        30.18F
OXFORD MS      FAIR      50  32  50 SW8       30.20R
ROME           SUNNY     49  34  56 CALM      30.18F
SAVANNAH       SUNNY     48  36  61 SE5       30.16F
TUPELO         SUNNY     50  35  56 S12       30.19S
TUSCALOOSA     SUNNY     52  36  54 S6        30.24R
$$

...GULF COAST WEATHER...

CITY           SKY/WX    TMP DP  RH WIND       PRES   REMARKS
GULFPORT       SUNNY     54  35  48 W3        30.24F
PASCAGOULA     SUNNY     54  35  48 CALM      30.24S
MOBILE         MOSUNNY   54  36  50 NE3       30.23F
GULF SHORES    CLEAR     55  37  51 W8        30.22F
DESTIN         SUNNY     57  36  45 NE5       30.20F
PANAMA CITY    SUNNY     58  51  79 VRB5      30.20F
APPALACHICOLA  SUNNY     62  37  39 NE6       30.19F
$$




USA.gov is the U.S. government's official web portal to all federal, state and local government web resources and services.